Weather History for KLXL - April, 2013

Change the Weather History Date:

Monday, April 22, 2013

  Actual Average Record
Temperature  
Mean Temperature 32 °F -  
Max Temperature 35 °F 61 °F 93 °F (1980)
Min Temperature 28 °F 35 °F 16 °F (1936)
Degree Days  
Heating Degree Days 34    
Moisture  
Dew Point 26 °F    
Average Humidity 80    
Maximum Humidity 100    
Minimum Humidity 56    
Precipitation  
Precipitation 0.11 in - - ()
Sea Level Pressure  
Sea Level Pressure 30.21 in    
Wind  
Wind Speed 5 mph (NNW)    
Max Wind Speed 9 mph    
Max Gust Speed 18 mph    
Visibility 8 miles    
Events Snow    
Averages and records for this station are not official NWS values.
T = Trace of Precipitation, MM = Missing Value Source: NWS Daily Summary

Daily Weather History Graph

Daily Weather History Graph

Search for Another Location

Airport or City:

Trip Planner

Search our weather history database for the weather conditions in past years. The results will help you decide how hot, cold, wet, or windy it might be!

Date:

Astronomy

Apr. 22, 2013 Rise Set
Actual Time 6:18 AM CDT 8:13 PM CDT
Civil Twilight 5:46 AM CDT 8:46 PM CDT
Nautical Twilight 5:07 AM CDT 9:25 PM CDT
Astronomical Twilight 4:24 AM CDT 10:08 PM CDT
Moon 4:54 PM CDT (4/22) 4:24 AM CDT (4/22)
Length of Visible Light 14h 59m
Length of Day
13h 55m
Waxing Gibbous, 88% of the Moon is Illuminated
Apr 22
Waxing Gibbous
Apr 25
Full
May 2
Last Quarter
May 9
New
May 17
First Quarter

Hourly Weather History & Observations

Time (CDT) Temp. Windchill Dew Point Humidity Pressure Visibility Wind Dir Wind Speed Gust Speed Precip Events Conditions
12:16 AM 33.8 °F 27.0 °F 30.2 °F 87% 30.13 in 10.0 mi NW 8.1 mph - N/A   Overcast
12:36 AM 33.8 °F 27.0 °F 28.4 °F 81% 30.14 in 10.0 mi NW 8.1 mph - N/A   Overcast
12:56 AM 33.8 °F 27.7 °F 28.4 °F 81% 30.14 in 10.0 mi NNW 6.9 mph - N/A   Overcast
1:16 AM 33.8 °F 28.6 °F 28.4 °F 81% 30.14 in 10.0 mi NW 5.8 mph - N/A   Overcast
1:36 AM 33.8 °F 27.0 °F 28.4 °F 81% 30.15 in 10.0 mi NW 8.1 mph - N/A   Overcast
1:56 AM 33.8 °F 27.7 °F 26.6 °F 75% 30.14 in 10.0 mi NNW 6.9 mph - N/A   Overcast
2:16 AM 33.8 °F 30.8 °F 28.4 °F 81% 30.16 in 10.0 mi NW 3.5 mph - N/A   Overcast
2:36 AM 33.8 °F - 28.4 °F 81% 30.17 in 10.0 mi Calm Calm - N/A   Overcast
2:56 AM 33.8 °F 29.6 °F 28.4 °F 81% 30.16 in 10.0 mi NW 4.6 mph - N/A   Overcast
3:16 AM 32.0 °F - 26.6 °F 80% 30.17 in 10.0 mi Calm Calm - N/A   Mostly Cloudy
3:36 AM 32.0 °F - 28.4 °F 87% 30.18 in 10.0 mi Calm Calm - N/A   Mostly Cloudy
3:56 AM 32.0 °F 28.7 °F 26.6 °F 80% 30.18 in 10.0 mi NNW 3.5 mph - N/A   Overcast
4:15 AM 32.0 °F 27.5 °F 26.6 °F 80% 30.18 in 10.0 mi NW 4.6 mph - N/A   Scattered Clouds
4:36 AM 32.0 °F 26.4 °F 24.8 °F 75% 30.19 in 10.0 mi NW 5.8 mph - N/A   Clear
4:56 AM 32.0 °F - 24.8 °F 75% 30.20 in 10.0 mi Calm Calm - N/A   Clear
5:16 AM 32.0 °F - 24.8 °F 75% 30.21 in 10.0 mi Calm Calm - N/A   Clear
5:36 AM 30.2 °F - 24.8 °F 80% 30.21 in 10.0 mi Calm Calm - N/A   Clear
5:56 AM 30.2 °F - 24.8 °F 80% 30.21 in 10.0 mi Calm Calm - N/A   Clear
6:16 AM 28.4 °F 24.6 °F 24.8 °F 86% 30.21 in 10.0 mi NNW 3.5 mph - N/A   Clear
6:36 AM 30.2 °F 25.4 °F 24.8 °F 80% 30.20 in 10.0 mi NNW 4.6 mph - N/A   Clear
6:56 AM 30.2 °F 25.4 °F 24.8 °F 80% 30.21 in 10.0 mi NNW 4.6 mph - N/A   Clear
7:16 AM 30.2 °F - 24.8 °F 80% 30.22 in 10.0 mi Calm Calm - N/A   Clear
7:36 AM 32.0 °F 28.7 °F 24.8 °F 75% 30.22 in 10.0 mi NNW 3.5 mph - N/A   Clear
7:56 AM 32.0 °F 27.5 °F 26.6 °F 80% 30.22 in 10.0 mi NNW 4.6 mph - N/A   Clear
8:16 AM 32.0 °F 26.4 °F 26.6 °F 80% 30.21 in 10.0 mi North 5.8 mph - N/A   Clear
8:36 AM 32.0 °F 27.5 °F 26.6 °F 80% 30.21 in 10.0 mi North 4.6 mph - N/A   Clear
8:56 AM 32.0 °F 27.5 °F 26.6 °F 80% 30.23 in 10.0 mi North 4.6 mph - N/A   Clear
9:16 AM 32.0 °F 26.4 °F 26.6 °F 80% 30.21 in 10.0 mi North 5.8 mph - N/A   Clear
9:36 AM 32.0 °F 26.4 °F 26.6 °F 80% 30.23 in 10.0 mi North 5.8 mph - N/A   Clear
9:56 AM 32.0 °F 26.4 °F 26.6 °F 80% 30.23 in 10.0 mi North 5.8 mph - N/A   Clear
10:16 AM 33.8 °F 30.8 °F 24.8 °F 70% 30.23 in 10.0 mi North 3.5 mph - N/A   Clear
10:36 AM 33.8 °F 29.6 °F 23.0 °F 65% 30.23 in 10.0 mi North 4.6 mph - N/A   Clear
10:56 AM 33.8 °F 29.6 °F 21.2 °F 60% 30.24 in 10.0 mi North 4.6 mph - N/A   Clear
11:16 AM 33.8 °F 29.6 °F 21.2 °F 60% 30.26 in 10.0 mi North 4.6 mph - N/A   Clear
11:36 AM 33.8 °F 27.7 °F 21.2 °F 60% 30.27 in 10.0 mi NNW 6.9 mph - N/A   Clear
11:56 AM 35.6 °F 30.7 °F 21.2 °F 56% 30.26 in 10.0 mi North 5.8 mph - N/A   Clear
12:16 PM 35.6 °F 30.7 °F 21.2 °F 56% 30.24 in 10.0 mi NNE 5.8 mph - N/A   Clear
12:36 PM 35.6 °F 30.7 °F 21.2 °F 56% 30.23 in 10.0 mi North 5.8 mph - N/A   Clear
12:56 PM 35.6 °F 29.2 °F 21.2 °F 56% 30.23 in 10.0 mi North 8.1 mph - N/A   Clear
1:16 PM 35.6 °F 29.2 °F 21.2 °F 56% 30.23 in 10.0 mi North 8.1 mph - N/A   Clear
1:36 PM 35.6 °F 28.6 °F 21.2 °F 56% 30.20 in 10.0 mi NNW 9.2 mph 18.4 mph N/A   Clear
1:56 PM 35.6 °F 30.7 °F 21.2 °F 56% 30.21 in 10.0 mi North 5.8 mph - N/A   Clear
2:17 PM 33.8 °F 26.4 °F 23.0 °F 65% 30.22 in 10.0 mi NNW 9.2 mph 18.4 mph N/A   Clear
2:36 PM 32.0 °F 24.2 °F 23.0 °F 69% 30.23 in 10.0 mi NNW 9.2 mph - N/A   Scattered Clouds
2:56 PM 32.0 °F 26.4 °F 26.6 °F 80% 30.23 in 1.0 mi North 5.8 mph - N/A Snow Light Snow
3:17 PM 30.2 °F 25.4 °F 28.4 °F 93% 30.23 in 0.5 mi North 4.6 mph - N/A Snow Snow
3:36 PM 30.2 °F 26.7 °F 28.4 °F 93% 30.22 in 0.5 mi North 3.5 mph - 0.01 in Snow Snow
3:56 PM 30.2 °F 25.4 °F 28.4 °F 93% 30.21 in 0.2 mi North 4.6 mph - 0.01 in Snow Heavy Snow
4:17 PM 30.2 °F 24.3 °F 28.4 °F 93% 30.21 in 0.2 mi NNW 5.8 mph - 0.04 in Snow Snow
4:36 PM 30.2 °F 25.4 °F 28.4 °F 93% 30.21 in 0.5 mi NNW 4.6 mph - 0.07 in Snow Snow
4:56 PM 32.0 °F 28.7 °F 28.4 °F 87% 30.21 in 0.5 mi NNW 3.5 mph - N/A Snow Snow
5:17 PM 32.0 °F 27.5 °F 28.4 °F 87% 30.21 in 0.5 mi North 4.6 mph - 0.02 in Snow Snow
5:36 PM 32.0 °F 26.4 °F 28.4 °F 87% 30.21 in 0.8 mi NNW 5.8 mph - 0.03 in Snow Light Snow
5:56 PM 32.0 °F 27.5 °F 30.2 °F 93% 30.21 in 0.8 mi North 4.6 mph - N/A Snow Light Snow
6:16 PM 32.0 °F 28.7 °F 28.4 °F 87% 30.21 in 1.5 mi North 3.5 mph - N/A Snow Light Snow
6:36 PM 32.0 °F 28.7 °F 28.4 °F 87% 30.21 in 2.0 mi North 3.5 mph - N/A Snow Snow
6:56 PM 32.0 °F 26.4 °F 28.4 °F 87% 30.21 in 1.5 mi NNW 5.8 mph - N/A Snow Light Snow
7:16 PM 32.0 °F 28.7 °F 28.4 °F 87% 30.21 in 2.5 mi NNW 3.5 mph - N/A   Overcast
7:36 PM 32.0 °F 28.7 °F 28.4 °F 87% 30.21 in 3.0 mi NNW 3.5 mph - N/A   Overcast
7:56 PM 32.0 °F - 28.4 °F 87% 30.22 in 5.0 mi Calm Calm - N/A   Overcast
8:16 PM 32.0 °F - 28.4 °F 87% 30.22 in 4.0 mi Calm Calm - N/A   Overcast
8:36 PM 32.0 °F - 28.4 °F 87% 30.21 in 2.5 mi Calm Calm - N/A Snow Light Snow
8:56 PM 30.2 °F - 28.4 °F 93% 30.22 in 4.0 mi Calm Calm - N/A Snow Light Snow
9:16 PM 30.2 °F - 28.4 °F 93% 30.22 in 7.0 mi Calm Calm - N/A   Overcast
9:36 PM 30.2 °F - 28.4 °F 93% 30.21 in 10.0 mi Calm Calm - N/A   Scattered Clouds
9:56 PM 30.2 °F - 28.4 °F 93% 30.21 in 10.0 mi Calm Calm - N/A   Clear
10:16 PM 30.2 °F - 28.4 °F 93% 30.22 in 10.0 mi Calm Calm - N/A   Clear
10:36 PM 30.2 °F - 28.4 °F 93% 30.21 in 10.0 mi Calm Calm - N/A   Clear
10:56 PM 30.2 °F - 28.4 °F 93% 30.21 in 10.0 mi Calm Calm - N/A   Clear
11:16 PM 30.2 °F - 28.4 °F 93% 30.21 in 5.0 mi Calm Calm - N/A   Clear
11:36 PM 30.2 °F - 28.4 °F 93% 30.21 in 5.0 mi Calm Calm - N/A   Clear
11:56 PM 28.4 °F - 28.4 °F 100% 30.20 in 7.0 mi Calm Calm - N/A   Clear